GAP316 RPVM-RPVE

Flight info

Callsign GAP316
Flight time 0h 36m
Altitude 22000
Route PARAO4P PARAO W6A ROX TR15 KLO KLO7A
Aircraft A20N/M-SDE2E3FGHIRWXY/LB1

Departure

Time 2026-05-05 08:14
Airport Mactan Cebu International Airport (RPVM)

Arrival

Time 2026-05-05 08:51
Airport Godofredo P. Ramos Airport (RPVE)
Time Latitude Longitude Altitude Speed Heading
2026-05-05 07:50 10.31463 123.97882 41 ft 0 kts 314°
2026-05-05 08:03 10.31461 123.97884 42 ft 2 kts 314°
2026-05-05 08:03 10.31443 123.97903 42 ft 4 kts 314°
2026-05-05 08:04 10.31424 123.97921 40 ft 4 kts 320°
2026-05-05 08:04 10.31406 123.97938 40 ft 4 kts 284°
2026-05-05 08:04 10.31407 123.97945 40 ft 4 kts 225°
2026-05-05 08:04 10.31419 123.97958 42 ft 0 kts 225°
2026-05-05 08:09 10.31404 123.97943 40 ft 9 kts 225°
2026-05-05 08:09 10.31351 123.97897 42 ft 10 kts 195°
2026-05-05 08:09 10.31288 123.97931 42 ft 11 kts 131°
2026-05-05 08:09 10.31232 123.97982 42 ft 6 kts 168°
2026-05-05 08:10 10.31169 123.97952 41 ft 17 kts 225°
2026-05-05 08:10 10.31075 123.97856 41 ft 21 kts 225°
2026-05-05 08:10 10.30965 123.97744 41 ft 24 kts 223°
2026-05-05 08:10 10.30838 123.97621 41 ft 27 kts 224°
2026-05-05 08:11 10.30716 123.97498 42 ft 26 kts 225°
2026-05-05 08:11 10.30582 123.97364 41 ft 27 kts 220°
2026-05-05 08:11 10.30465 123.97243 42 ft 25 kts 225°
2026-05-05 08:11 10.30341 123.97170 42 ft 18 kts 145°
2026-05-05 08:12 10.30314 123.97238 41 ft 8 kts 49°
2026-05-05 08:12 10.30337 123.97260 42 ft 0 kts 46°
2026-05-05 08:12 10.30339 123.97263 42 ft 2 kts 46°
2026-05-05 08:12 10.30342 123.97265 42 ft 0 kts 46°
2026-05-05 08:13 10.30345 123.97269 42 ft 2 kts 47°
2026-05-05 08:13 10.30377 123.97302 42 ft 17 kts 45°
2026-05-05 08:14 10.30536 123.97462 42 ft 56 kts 44°
2026-05-05 08:14 10.31002 123.97928 38 ft 128 kts 45°
2026-05-05 08:14 10.31689 123.98627 473 ft 141 kts 45°
2026-05-05 08:14 10.32401 123.99343 1110 ft 148 kts 46°
2026-05-05 08:15 10.33218 124.00164 1493 ft 185 kts 47°
2026-05-05 08:15 10.34238 124.01194 1877 ft 229 kts 46°
2026-05-05 08:15 10.35417 124.02377 2513 ft 248 kts 45°
2026-05-05 08:15 10.36268 124.03176 3135 ft 254 kts 39°
2026-05-05 08:16 10.37719 124.03781 3992 ft 263 kts
2026-05-05 08:16 10.39533 124.03453 5025 ft 273 kts 336°
2026-05-05 08:16 10.41104 124.02340 6057 ft 279 kts 321°
2026-05-05 08:16 10.42569 124.01015 6977 ft 286 kts 319°
2026-05-05 08:17 10.44059 123.99650 7895 ft 293 kts 320°
2026-05-05 08:17 10.45578 123.98287 8838 ft 298 kts 320°
2026-05-05 08:17 10.47154 123.96897 9796 ft 303 kts 320°
2026-05-05 08:17 10.48782 123.95477 10521 ft 316 kts 320°
2026-05-05 08:18 10.50510 123.93978 10956 ft 336 kts 320°
2026-05-05 08:18 10.52323 123.92410 11546 ft 348 kts 320°
2026-05-05 08:18 10.54190 123.90799 12270 ft 355 kts 320°
2026-05-05 08:18 10.56087 123.89163 13031 ft 361 kts 320°
2026-05-05 08:19 10.58009 123.87505 13816 ft 365 kts 320°
2026-05-05 08:19 10.59781 123.85620 14506 ft 371 kts 309°
2026-05-05 08:19 10.61333 123.83545 15192 ft 376 kts 307°
2026-05-05 08:19 10.62876 123.81386 15937 ft 380 kts 307°
2026-05-05 08:20 10.64432 123.79202 16692 ft 383 kts 307°
2026-05-05 08:20 10.66014 123.76988 17397 ft 388 kts 307°
2026-05-05 08:20 10.67610 123.74763 18074 ft 393 kts 307°
2026-05-05 08:20 10.69231 123.72506 18642 ft 397 kts 307°
2026-05-05 08:21 10.70866 123.70231 19182 ft 401 kts 307°
2026-05-05 08:21 10.72522 123.67927 19701 ft 405 kts 307°
2026-05-05 08:21 10.74195 123.65602 20157 ft 410 kts 307°
2026-05-05 08:21 10.75888 123.63248 20716 ft 413 kts 307°
2026-05-05 08:22 10.77573 123.60904 21249 ft 417 kts 307°
2026-05-05 08:22 10.79291 123.58514 21690 ft 419 kts 307°
2026-05-05 08:22 10.81013 123.56117 21837 ft 421 kts 307°
2026-05-05 08:22 10.82745 123.53707 21847 ft 423 kts 307°
2026-05-05 08:23 10.84483 123.51288 21846 ft 424 kts 307°
2026-05-05 08:23 10.86223 123.48866 21845 ft 424 kts 307°
2026-05-05 08:23 10.87959 123.46447 21843 ft 424 kts 307°
2026-05-05 08:23 10.89700 123.44023 21842 ft 423 kts 307°
2026-05-05 08:24 10.91443 123.41618 21840 ft 423 kts 309°
2026-05-05 08:24 10.93352 123.39388 21843 ft 423 kts 314°
2026-05-05 08:24 10.95419 123.37263 21843 ft 422 kts 317°
2026-05-05 08:24 10.97556 123.35210 21839 ft 422 kts 318°
2026-05-05 08:25 10.99715 123.33189 21838 ft 422 kts 319°
2026-05-05 08:25 11.01885 123.31166 21838 ft 423 kts 319°
2026-05-05 08:25 11.04042 123.29142 21840 ft 423 kts 318°
2026-05-05 08:25 11.06195 123.27104 21838 ft 422 kts 317°
2026-05-05 08:26 11.08335 123.25062 21838 ft 422 kts 317°
2026-05-05 08:26 11.10468 123.23015 21837 ft 421 kts 317°
2026-05-05 08:26 11.12568 123.20994 21836 ft 421 kts 317°
2026-05-05 08:26 11.14697 123.18942 21837 ft 421 kts 317°
2026-05-05 08:27 11.16827 123.16889 21838 ft 421 kts 317°
2026-05-05 08:27 11.18955 123.14838 21837 ft 421 kts 317°
2026-05-05 08:27 11.21081 123.12788 21838 ft 421 kts 317°
2026-05-05 08:27 11.23212 123.10735 21837 ft 421 kts 317°
2026-05-05 08:28 11.25343 123.08682 21836 ft 421 kts 317°
2026-05-05 08:28 11.27474 123.06627 21837 ft 421 kts 317°
2026-05-05 08:28 11.29599 123.04579 21837 ft 421 kts 317°
2026-05-05 08:28 11.31703 123.02550 21837 ft 421 kts 317°
2026-05-05 08:29 11.33831 123.00499 21838 ft 421 kts 317°
2026-05-05 08:29 11.35960 122.98444 21837 ft 421 kts 317°
2026-05-05 08:29 11.38088 122.96391 21837 ft 421 kts 317°
2026-05-05 08:30 11.42341 122.92288 21844 ft 421 kts 317°
2026-05-05 08:30 11.44470 122.90233 21845 ft 421 kts 317°
2026-05-05 08:30 11.46592 122.88183 21845 ft 421 kts 317°
2026-05-05 08:30 11.48716 122.86131 21845 ft 420 kts 317°
2026-05-05 08:31 11.50807 122.84112 21845 ft 420 kts 317°
2026-05-05 08:31 11.52926 122.82064 21849 ft 420 kts 317°
2026-05-05 08:31 11.55049 122.80013 21848 ft 420 kts 317°
2026-05-05 08:31 11.57156 122.77960 21847 ft 420 kts 315°
2026-05-05 08:32 11.58962 122.75613 21848 ft 421 kts 301°
2026-05-05 08:32 11.60177 122.72904 21851 ft 421 kts 290°
2026-05-05 08:32 11.61079 122.70072 21852 ft 421 kts 285°
2026-05-05 08:32 11.61820 122.67185 21852 ft 421 kts 283°
2026-05-05 08:33 11.62477 122.64292 21853 ft 421 kts 282°
2026-05-05 08:33 11.63099 122.61417 21859 ft 421 kts 282°
2026-05-05 08:33 11.63735 122.58496 21857 ft 421 kts 282°
2026-05-05 08:33 11.64384 122.55583 21856 ft 421 kts 283°
2026-05-05 08:34 11.65044 122.52677 21855 ft 421 kts 283°
2026-05-05 08:34 11.65713 122.49762 21856 ft 421 kts 283°
2026-05-05 08:34 11.66392 122.46823 21629 ft 428 kts 283°
2026-05-05 08:34 11.67078 122.43860 20742 ft 430 kts 283°
2026-05-05 08:35 11.67777 122.40870 19776 ft 434 kts 284°
2026-05-05 08:35 11.68839 122.38009 19012 ft 431 kts 300°
2026-05-05 08:35 11.70522 122.35506 18311 ft 426 kts 308°
2026-05-05 08:35 11.72334 122.33183 17568 ft 422 kts 310°
2026-05-05 08:36 11.74177 122.30869 16892 ft 415 kts 310°
2026-05-05 08:36 11.75977 122.28605 16252 ft 408 kts 309°
2026-05-05 08:36 11.77742 122.26373 15610 ft 402 kts 309°
2026-05-05 08:36 11.79485 122.24164 14959 ft 396 kts 309°
2026-05-05 08:37 11.81199 122.21986 14337 ft 391 kts 309°
2026-05-05 08:37 11.82887 122.19838 13733 ft 386 kts 309°
2026-05-05 08:37 11.84546 122.17725 13317 ft 374 kts 309°
2026-05-05 08:37 11.86113 122.15729 13071 ft 358 kts 309°
2026-05-05 08:38 11.87640 122.13782 12854 ft 343 kts 309°
2026-05-05 08:38 11.89104 122.11916 12665 ft 329 kts 309°
2026-05-05 08:38 11.90508 122.10125 12406 ft 319 kts 309°
2026-05-05 08:38 11.91892 122.08359 11810 ft 321 kts 309°
2026-05-05 08:39 11.93296 122.06568 11196 ft 324 kts 309°
2026-05-05 08:39 11.94699 122.04779 10796 ft 320 kts 309°
2026-05-05 08:39 11.96064 122.03036 10622 ft 307 kts 309°
2026-05-05 08:39 11.97353 122.01391 10478 ft 295 kts 309°
2026-05-05 08:40 11.98611 121.99784 10350 ft 284 kts 309°
2026-05-05 08:40 11.99820 121.98241 10217 ft 273 kts 309°
2026-05-05 08:40 12.00982 121.96756 10126 ft 262 kts 309°
2026-05-05 08:40 12.02098 121.95327 10025 ft 253 kts 308°
2026-05-05 08:41 12.03001 121.93832 9902 ft 243 kts 292°
2026-05-05 08:41 12.03362 121.92181 9732 ft 236 kts 269°
2026-05-05 08:41 12.03098 121.90549 9394 ft 234 kts 246°
2026-05-05 08:41 12.02321 121.89081 8841 ft 244 kts 233°
2026-05-05 08:42 12.01320 121.87622 8222 ft 258 kts 231°
2026-05-05 08:42 12.00239 121.86095 7557 ft 272 kts 232°
2026-05-05 08:42 11.99108 121.84486 6829 ft 284 kts 232°
2026-05-05 08:42 11.97940 121.82809 5902 ft 296 kts 232°
2026-05-05 08:43 11.96733 121.81065 4844 ft 307 kts 233°
2026-05-05 08:43 11.95481 121.79250 3694 ft 317 kts 233°
2026-05-05 08:43 11.94224 121.77423 3138 ft 307 kts 233°
2026-05-05 08:43 11.93016 121.75701 3013 ft 288 kts 229°
2026-05-05 08:44 11.91587 121.74450 2927 ft 262 kts 204°
2026-05-05 08:44 11.89936 121.74015 2776 ft 234 kts 176°
2026-05-05 08:44 11.88429 121.74317 2617 ft 212 kts 154°
2026-05-05 08:44 11.87143 121.74916 2466 ft 196 kts 148°
2026-05-05 08:45 11.86002 121.75572 2322 ft 181 kts 141°
2026-05-05 08:45 11.85118 121.76423 2131 ft 171 kts 123°
2026-05-05 08:45 11.84575 121.77482 2107 ft 167 kts 104°
2026-05-05 08:45 11.84410 121.78637 2097 ft 165 kts 85°
2026-05-05 08:46 11.84625 121.79768 2097 ft 165 kts 70°
2026-05-05 08:46 11.85098 121.80836 2099 ft 167 kts 64°
2026-05-05 08:46 11.85638 121.81894 2095 ft 169 kts 62°
2026-05-05 08:46 11.86189 121.82957 2103 ft 169 kts 63°
2026-05-05 08:47 11.86709 121.83971 2096 ft 153 kts 64°
2026-05-05 08:47 11.87167 121.84870 2061 ft 134 kts 64°
2026-05-05 08:47 11.87584 121.85696 1931 ft 129 kts 64°
2026-05-05 08:47 11.87989 121.86500 1755 ft 124 kts 64°
2026-05-05 08:48 11.88368 121.87254 1636 ft 117 kts 64°
2026-05-05 08:48 11.88733 121.87980 1434 ft 115 kts 62°
2026-05-05 08:48 11.89099 121.88705 1246 ft 115 kts 64°
2026-05-05 08:48 11.89465 121.89432 1039 ft 116 kts 64°
2026-05-05 08:49 11.89834 121.90162 975 ft 116 kts 63°
2026-05-05 08:49 11.90197 121.90896 879 ft 115 kts 63°
2026-05-05 08:49 11.90564 121.91624 690 ft 115 kts 64°
2026-05-05 08:49 11.90911 121.92354 544 ft 116 kts 65°
2026-05-05 08:50 11.91157 121.92842 520 ft 118 kts 63°
2026-05-05 08:50 11.91673 121.93845 345 ft 120 kts 62°
2026-05-05 08:50 11.91926 121.94345 245 ft 120 kts 63°
2026-05-05 08:50 11.92303 121.95090 60 ft 118 kts 64°
2026-05-05 08:51 11.92635 121.95757 37 ft 83 kts 63°
2026-05-05 08:51 11.92857 121.96201 35 ft 38 kts 63°
2026-05-05 08:51 11.92923 121.96341 35 ft 28 kts 62°
2026-05-05 08:51 11.92935 121.96470 38 ft 8 kts 145°
2026-05-05 08:52 11.92900 121.96490 43 ft 4 kts 154°
2026-05-05 08:52 11.92869 121.96505 44 ft 12 kts 154°
2026-05-05 08:52 11.92786 121.96502 45 ft 9 kts 249°
2026-05-05 08:52 11.92763 121.96454 45 ft 16 kts 243°
2026-05-05 08:53 11.92745 121.96423 46 ft 1 kts 231°
2026-05-05 08:53 11.92738 121.96404 45 ft 5 kts 249°
2026-05-05 08:53 11.92725 121.96388 45 ft 0 kts 216°
2026-05-05 08:53 11.92709 121.96363 45 ft 3 kts 214°
2026-05-05 08:54 11.92686 121.96365 45 ft 5 kts 159°
2026-05-05 08:54 11.92672 121.96372 45 ft 0 kts 154°